TimeCST,TemperatureF,Dew PointF,Humidity,Sea Level PressureIn,VisibilityMPH,Wind Direction,Wind SpeedMPH,Gust SpeedMPH,PrecipitationIn,Events,Conditions,WindDirDegrees,DateUTC
12:15 AM,28.4,24.8,86,30.03,10.0,NW,20.7,27.6,N/A,,Overcast,320,2013-03-06 06:15:00
12:35 AM,28.4,24.8,86,30.05,10.0,NNW,20.7,29.9,N/A,,Overcast,330,2013-03-06 06:35:00
12:55 AM,28.4,24.8,86,30.06,10.0,NW,20.7,26.5,N/A,,Overcast,320,2013-03-06 06:55:00
1:15 AM,28.4,24.8,86,30.07,10.0,NW,19.6,26.5,N/A,,Overcast,320,2013-03-06 07:15:00
1:35 AM,28.4,23.0,80,30.07,10.0,NW,19.6,24.2,N/A,,Overcast,310,2013-03-06 07:35:00
1:55 AM,28.4,23.0,80,30.08,10.0,NW,21.9,28.8,N/A,,Overcast,320,2013-03-06 07:55:00
2:15 AM,28.4,23.0,80,30.08,10.0,NW,23.0,29.9,N/A,,Overcast,320,2013-03-06 08:15:00
2:35 AM,28.4,23.0,80,30.09,10.0,NW,24.2,31.1,N/A,,Overcast,320,2013-03-06 08:35:00
2:55 AM,28.4,23.0,80,30.09,10.0,NW,19.6,29.9,N/A,,Mostly Cloudy,320,2013-03-06 08:55:00
3:15 AM,28.4,23.0,80,30.10,10.0,NW,18.4,29.9,N/A,,Overcast,320,2013-03-06 09:15:00
3:35 AM,28.4,23.0,80,30.11,10.0,NW,20.7,28.8,N/A,,Overcast,310,2013-03-06 09:35:00
3:55 AM,28.4,23.0,80,30.12,10.0,NW,17.3,27.6,N/A,,Overcast,320,2013-03-06 09:55:00
4:15 AM,28.4,23.0,80,30.14,10.0,NW,19.6,26.5,N/A,,Mostly Cloudy,320,2013-03-06 10:15:00
4:35 AM,28.4,23.0,80,30.15,10.0,NW,17.3,24.2,N/A,,Overcast,320,2013-03-06 10:35:00
4:55 AM,28.4,23.0,80,30.16,10.0,NW,17.3,28.8,N/A,,Overcast,320,2013-03-06 10:55:00
5:15 AM,28.4,23.0,80,30.18,10.0,NW,20.7,25.3,N/A,,Overcast,320,2013-03-06 11:15:00
5:35 AM,28.4,23.0,80,30.19,10.0,NW,17.3,24.2,N/A,,Overcast,320,2013-03-06 11:35:00
5:55 AM,28.4,23.0,80,30.20,10.0,NW,17.3,26.5,N/A,,Overcast,320,2013-03-06 11:55:00
6:15 AM,28.4,23.0,80,30.20,10.0,NNW,20.7,25.3,N/A,,Overcast,330,2013-03-06 12:15:00
6:35 AM,26.6,21.2,80,30.21,10.0,NNW,18.4,23.0,N/A,,Overcast,330,2013-03-06 12:35:00
6:55 AM,26.6,21.2,80,30.22,10.0,NW,17.3,21.9,N/A,,Overcast,320,2013-03-06 12:55:00
7:15 AM,26.6,21.2,80,30.24,10.0,NW,17.3,23.0,N/A,,Overcast,320,2013-03-06 13:15:00
7:35 AM,26.6,21.2,80,30.26,10.0,NW,16.1,23.0,N/A,,Overcast,320,2013-03-06 13:35:00
7:55 AM,26.6,21.2,80,30.26,10.0,NW,16.1,-,N/A,,Overcast,320,2013-03-06 13:55:00
8:15 AM,26.6,21.2,80,30.27,10.0,NNW,18.4,26.5,N/A,,Overcast,330,2013-03-06 14:15:00
8:35 AM,26.6,21.2,80,30.27,10.0,NNW,20.7,28.8,N/A,,Overcast,330,2013-03-06 14:35:00
8:55 AM,26.6,21.2,80,30.28,10.0,NNW,19.6,-,N/A,,Overcast,340,2013-03-06 14:55:00
9:15 AM,26.6,21.2,80,30.29,10.0,NNW,18.4,25.3,N/A,,Overcast,340,2013-03-06 15:15:00
9:35 AM,28.4,23.0,80,30.29,10.0,NNW,19.6,-,N/A,,Overcast,340,2013-03-06 15:35:00
9:55 AM,28.4,23.0,80,30.30,10.0,NNW,13.8,-,N/A,,Overcast,330,2013-03-06 15:55:00
10:15 AM,28.4,23.0,80,30.31,10.0,NNW,13.8,21.9,N/A,,Mostly Cloudy,330,2013-03-06 16:15:00
10:35 AM,30.2,24.8,80,30.31,10.0,NNW,15.0,-,N/A,,Mostly Cloudy,330,2013-03-06 16:35:00
10:55 AM,30.2,23.0,75,30.32,10.0,NW,15.0,-,N/A,,Mostly Cloudy,320,2013-03-06 16:55:00
11:15 AM,30.2,24.8,80,30.32,10.0,NW,12.7,-,N/A,,Overcast,320,2013-03-06 17:15:00
11:35 AM,30.2,24.8,80,30.31,10.0,NW,15.0,-,N/A,,Overcast,320,2013-03-06 17:35:00
11:55 AM,30.2,23.0,75,30.31,10.0,NNW,15.0,18.4,N/A,,Overcast,330,2013-03-06 17:55:00
12:15 PM,30.2,24.8,80,30.31,10.0,NNW,13.8,-,N/A,,Overcast,330,2013-03-06 18:15:00
12:35 PM,30.2,24.8,80,30.30,10.0,NNW,15.0,-,N/A,,Overcast,330,2013-03-06 18:35:00
12:55 PM,30.2,24.8,80,30.30,10.0,NW,12.7,18.4,N/A,,Overcast,310,2013-03-06 18:55:00
1:15 PM,30.2,24.8,80,30.30,10.0,NNW,13.8,-,N/A,,Overcast,330,2013-03-06 19:15:00
1:35 PM,30.2,24.8,80,30.30,10.0,NNW,12.7,-,N/A,,Overcast,330,2013-03-06 19:35:00
1:55 PM,30.2,24.8,80,30.30,10.0,NNW,13.8,-,N/A,,Overcast,330,2013-03-06 19:55:00
2:15 PM,30.2,24.8,80,30.30,10.0,NNW,15.0,-,N/A,,Overcast,330,2013-03-06 20:15:00
2:35 PM,30.2,24.8,80,30.31,10.0,NNW,11.5,-,N/A,,Overcast,340,2013-03-06 20:35:00
2:55 PM,30.2,24.8,80,30.31,10.0,NNW,10.4,-,N/A,,Overcast,340,2013-03-06 20:55:00
3:15 PM,30.2,24.8,80,30.31,10.0,NNW,10.4,-,N/A,,Overcast,340,2013-03-06 21:15:00
3:35 PM,30.2,24.8,80,30.32,10.0,WNW,9.2,-,N/A,,Overcast,300,2013-03-06 21:35:00
3:55 PM,30.2,23.0,75,30.32,10.0,WNW,10.4,-,N/A,,Overcast,290,2013-03-06 21:55:00
4:15 PM,28.4,23.0,80,30.32,10.0,WNW,12.7,-,N/A,,Overcast,290,2013-03-06 22:15:00
4:35 PM,28.4,21.2,74,30.32,10.0,WNW,11.5,-,N/A,,Overcast,290,2013-03-06 22:35:00
4:55 PM,28.4,21.2,74,30.33,10.0,WNW,9.2,-,N/A,,Overcast,300,2013-03-06 22:55:00
5:15 PM,28.4,21.2,74,30.33,10.0,WNW,8.1,-,N/A,,Overcast,290,2013-03-06 23:15:00
5:35 PM,28.4,21.2,74,30.34,10.0,NW,8.1,-,N/A,,Overcast,310,2013-03-06 23:35:00
5:55 PM,28.4,21.2,74,30.34,10.0,NW,10.4,-,N/A,,Overcast,320,2013-03-06 23:55:00
6:15 PM,28.4,21.2,74,30.33,10.0,NW,9.2,-,N/A,,Overcast,320,2013-03-07 00:15:00
6:35 PM,28.4,21.2,74,30.33,10.0,NNW,10.4,-,N/A,,Overcast,340,2013-03-07 00:35:00
6:55 PM,28.4,21.2,74,30.33,10.0,NNW,10.4,-,N/A,,Overcast,330,2013-03-07 00:55:00
7:15 PM,28.4,21.2,74,30.33,10.0,North,9.2,-,N/A,,Overcast,350,2013-03-07 01:15:00
7:35 PM,28.4,21.2,74,30.33,10.0,NNW,11.5,-,N/A,,Overcast,330,2013-03-07 01:35:00
7:55 PM,26.6,21.2,80,30.33,10.0,NW,9.2,-,N/A,,Overcast,310,2013-03-07 01:55:00
8:15 PM,26.6,21.2,80,30.34,10.0,NNW,8.1,-,N/A,,Overcast,340,2013-03-07 02:15:00
8:35 PM,26.6,21.2,80,30.34,10.0,North,9.2,-,N/A,,Overcast,360,2013-03-07 02:35:00
8:55 PM,26.6,21.2,80,30.34,10.0,North,8.1,-,N/A,,Overcast,360,2013-03-07 02:55:00
9:15 PM,26.6,21.2,80,30.33,10.0,North,9.2,-,N/A,,Overcast,350,2013-03-07 03:15:00
9:35 PM,26.6,21.2,80,30.33,10.0,Calm,Calm,-,N/A,,Overcast,0,2013-03-07 03:35:00
9:55 PM,26.6,21.2,80,30.33,10.0,North,5.8,-,N/A,,Overcast,10,2013-03-07 03:55:00
10:15 PM,26.6,21.2,80,30.33,10.0,NW,4.6,-,N/A,,Overcast,320,2013-03-07 04:15:00
10:35 PM,26.6,21.2,80,30.33,10.0,North,3.5,-,N/A,,Overcast,350,2013-03-07 04:35:00
10:55 PM,26.6,21.2,80,30.33,10.0,NW,5.8,-,N/A,,Overcast,320,2013-03-07 04:55:00
11:15 PM,26.6,21.2,80,30.33,10.0,West,4.6,-,N/A,,Overcast,280,2013-03-07 05:15:00
11:35 PM,26.6,21.2,80,30.33,10.0,Calm,Calm,-,N/A,,Overcast,0,2013-03-07 05:35:00
11:55 PM,26.6,21.2,80,30.33,10.0,Calm,Calm,-,N/A,,Overcast,0,2013-03-07 05:55:00